When you browse on this site, cookies collect data to enhance your experience and personalize the content and advertising you see.
Visit our Privacy Policy to learn more. By continuing to use the site, you agree to this use of cookies and data.
  • In Österreich
  • Länderverzeichnis
  • Für 7 Tage
  • Wassertemperatur
  • Wetterkarte
  • News
  • Widgets
  • user-avatar
    Anmelden

    Stündliche Wetter Kumak

    Heute, 29 Mai, Freitag

    Zeit Temperatur Niederschläge Wind Luftdruck Luftfeuchtigkeit
    00:00 +23°C° 0 mm 4 m/S 742 mmHg 49%
    01:00 +22°C° 0 mm 3 m/S 742 mmHg 52%
    02:00 +21°C° 0 mm 3 m/S 742 mmHg 55%
    03:00 +21°C° 0 mm 3 m/S 742 mmHg 58%
    04:00 +20°C° 0 mm 3 m/S 742 mmHg 55%
    05:00 +21°C° 0 mm 3 m/S 742 mmHg 54%
    06:00 +22°C° 0 mm 3 m/S 742 mmHg 53%
    07:00 +24°C° 0 mm 3 m/S 742 mmHg 52%
    08:00 +26°C° 0 mm 4 m/S 742 mmHg 48%
    09:00 +27°C° 0 mm 5 m/S 742 mmHg 43%
    10:00 +29°C° 0 mm 6 m/S 742 mmHg 39%
    11:00 +30°C° 0 mm 6 m/S 742 mmHg 38%
    12:00 +32°C° 0 mm 6 m/S 742 mmHg 37%
    13:00 +33°C° 0 mm 6 m/S 742 mmHg 36%
    14:00 +33°C° 0 mm 7 m/S 742 mmHg 38%
    15:00 +33°C° 0 mm 7 m/S 742 mmHg 39%
    16:00 +32°C° 0 mm 8 m/S 742 mmHg 41%
    17:00 +29°C° 0 mm 8 m/S 742 mmHg 48%
    18:00 +28°C° 0 mm 9 m/S 742 mmHg 54%
    19:00 +26°C° 0 mm 9 m/S 742 mmHg 60%
    20:00 +23°C° 0 mm 8 m/S 742 mmHg 61%
    21:00 +22°C° 0 mm 8 m/S 742 mmHg 61%
    22:00 +21°C° 0 mm 7 m/S 743 mmHg 62%
    23:00 +20°C° 0 mm 7 m/S 743 mmHg 62%

    Morgen, 30 Mai, Samstag

    Zeit Temperatur Niederschläge Wind Luftdruck Luftfeuchtigkeit
    00:00 +19°C° 0 mm 6 m/S 743 mmHg 63%
    01:00 +19°C° 0 mm 6 m/S 743 mmHg 64%
    02:00 +17°C° 0 mm 6 m/S 743 mmHg 63%
    03:00 +17°C° 0 mm 6 m/S 743 mmHg 62%
    04:00 +16°C° 0 mm 6 m/S 743 mmHg 61%
    05:00 +17°C° 0 mm 6 m/S 743 mmHg 59%
    06:00 +19°C° 0 mm 6 m/S 743 mmHg 58%
    07:00 +20°C° 0 mm 6 m/S 743 mmHg 57%
    08:00 +22°C° 0 mm 6 m/S 743 mmHg 54%
    09:00 +23°C° 0 mm 6 m/S 743 mmHg 51%
    10:00 +26°C° 0 mm 7 m/S 743 mmHg 47%
    11:00 +27°C° 0 mm 6 m/S 743 mmHg 45%
    12:00 +29°C° 0 mm 6 m/S 742 mmHg 43%
    13:00 +30°C° 0 mm 5 m/S 742 mmHg 41%
    14:00 +32°C° 0 mm 4 m/S 742 mmHg 40%
    15:00 +31°C° 0 mm 3 m/S 742 mmHg 38%
    16:00 +32°C° 0 mm 2 m/S 741 mmHg 37%
    17:00 +31°C° 0 mm 2 m/S 741 mmHg 40%
    18:00 +30°C° 0 mm 2 m/S 741 mmHg 42%
    19:00 +30°C° 0 mm 2 m/S 740 mmHg 45%
    20:00 +28°C° 0 mm 2 m/S 740 mmHg 50%
    21:00 +26°C° 0 mm 3 m/S 740 mmHg 56%
    22:00 +23°C° 0 mm 4 m/S 740 mmHg 61%
    23:00 +22°C° 0 mm 3 m/S 740 mmHg 63%

    übermorgen, 31 Mai, Sonntag

    Zeit Temperatur Niederschläge Wind Luftdruck Luftfeuchtigkeit
    00:00 +21°C° 0 mm 3 m/S 740 mmHg 65%
    01:00 +20°C° 0 mm 3 m/S 739 mmHg 67%
    02:00 +20°C° 0 mm 2 m/S 739 mmHg 67%
    03:00 +21°C° 0 mm 1 m/S 739 mmHg 67%
    04:00 +21°C° 0 mm 1 m/S 738 mmHg 68%
    05:00 +23°C° 0 mm 1 m/S 738 mmHg 63%
    06:00 +24°C° 0 mm 1 m/S 738 mmHg 58%
    07:00 +26°C° 0 mm 2 m/S 738 mmHg 53%
    08:00 +28°C° 0 mm 3 m/S 738 mmHg 47%
    09:00 +30°C° 0 mm 5 m/S 738 mmHg 41%
    10:00 +33°C° 0 mm 6 m/S 738 mmHg 35%
    11:00 +33°C° 0 mm 7 m/S 737 mmHg 36%
    12:00 +34°C° 0 mm 7 m/S 737 mmHg 37%
    13:00 +34°C° 0 mm 7 m/S 737 mmHg 39%
    14:00 +34°C° 0 mm 7 m/S 737 mmHg 38%
    15:00 +33°C° 0 mm 7 m/S 737 mmHg 37%
    16:00 +33°C° 0 mm 8 m/S 737 mmHg 36%
    17:00 +30°C° 0 mm 7 m/S 738 mmHg 42%
    18:00 +28°C° 0 mm 6 m/S 738 mmHg 47%
    19:00 +26°C° 0 mm 5 m/S 738 mmHg 53%
    20:00 +25°C° 0 mm 5 m/S 738 mmHg 55%
    21:00 +23°C° 0 mm 5 m/S 739 mmHg 56%
    22:00 +21°C° 0 mm 4 m/S 739 mmHg 58%
    23:00 +20°C° 0 mm 4 m/S 739 mmHg 60%

    1 Juni, Montag

    Zeit Temperatur Niederschläge Wind Luftdruck Luftfeuchtigkeit
    00:00 +19°C° 0 mm 4 m/S 739 mmHg 62%
    01:00 +19°C° 0 mm 3 m/S 739 mmHg 64%
    02:00 +18°C° 0 mm 3 m/S 739 mmHg 66%
    03:00 +17°C° 0 mm 3 m/S 739 mmHg 68%
    04:00 +17°C° 0 mm 2 m/S 739 mmHg 71%
    05:00 +18°C° 0 mm 3 m/S 740 mmHg 67%
    06:00 +19°C° 0 mm 3 m/S 740 mmHg 63%
    07:00 +20°C° 0 mm 3 m/S 740 mmHg 59%
    08:00 +22°C° 0 mm 3 m/S 740 mmHg 53%
    09:00 +23°C° 0 mm 4 m/S 741 mmHg 47%
    10:00 +25°C° 0 mm 4 m/S 741 mmHg 41%
    11:00 +26°C° 0 mm 5 m/S 741 mmHg 39%
    12:00 +27°C° 0 mm 5 m/S 740 mmHg 38%
    13:00 +27°C° 0 mm 5 m/S 740 mmHg 36%
    14:00 +27°C° 0 mm 5 m/S 740 mmHg 36%
    15:00 +27°C° 0 mm 5 m/S 740 mmHg 36%
    16:00 +27°C° 0 mm 4 m/S 740 mmHg 36%
    17:00 +26°C° 0 mm 4 m/S 740 mmHg 40%
    18:00 +25°C° 0 mm 4 m/S 740 mmHg 44%
    19:00 +24°C° 0 mm 3 m/S 741 mmHg 48%
    20:00 +22°C° 0 mm 3 m/S 741 mmHg 51%
    21:00 +21°C° 0 mm 3 m/S 741 mmHg 54%
    22:00 +19°C° 0 mm 3 m/S 741 mmHg 57%
    23:00 +19°C° 0 mm 2 m/S 741 mmHg 59%

    2 Juni, Dienstag

    Zeit Temperatur Niederschläge Wind Luftdruck Luftfeuchtigkeit
    00:00 +18°C° 0 mm 2 m/S 741 mmHg 60%
    01:00 +18°C° 0 mm 1 m/S 741 mmHg 62%
    02:00 +18°C° 0 mm 1 m/S 741 mmHg 64%
    03:00 +16°C° 0 mm 1 m/S 741 mmHg 66%
    04:00 +16°C° 0 mm 1 m/S 741 mmHg 68%
    05:00 +19°C° 0 mm 1 m/S 741 mmHg 64%
    06:00 +20°C° 0 mm 1 m/S 741 mmHg 60%
    07:00 +21°C° 0 mm 2 m/S 742 mmHg 55%
    08:00 +23°C° 0 mm 2 m/S 742 mmHg 49%
    09:00 +25°C° 0 mm 2 m/S 741 mmHg 43%
    10:00 +26°C° 0 mm 3 m/S 741 mmHg 36%
    11:00 +27°C° 0 mm 3 m/S 741 mmHg 33%
    12:00 +28°C° 0 mm 3 m/S 741 mmHg 30%
    13:00 +29°C° 0 mm 3 m/S 741 mmHg 27%
    14:00 +29°C° 0 mm 3 m/S 741 mmHg 26%
    15:00 +30°C° 0 mm 3 m/S 741 mmHg 25%
    16:00 +30°C° 0 mm 3 m/S 740 mmHg 24%
    17:00 +29°C° 0 mm 2 m/S 740 mmHg 27%
    18:00 +28°C° 0 mm 2 m/S 740 mmHg 31%
    19:00 +27°C° 0 mm 2 m/S 740 mmHg 34%
    20:00 +26°C° 0 mm 2 m/S 740 mmHg 36%
    21:00 +24°C° 0 mm 3 m/S 739 mmHg 38%
    22:00 +22°C° 0 mm 4 m/S 739 mmHg 39%
    23:00 +22°C° 0 mm 4 m/S 739 mmHg 41%

    3 Juni, Mittwoch

    Zeit Temperatur Niederschläge Wind Luftdruck Luftfeuchtigkeit
    00:00 +21°C° 0 mm 4 m/S 739 mmHg 42%
    01:00 +21°C° 0 mm 4 m/S 739 mmHg 44%
    02:00 +21°C° 0 mm 4 m/S 738 mmHg 45%
    03:00 +20°C° 0 mm 4 m/S 738 mmHg 46%
    04:00 +20°C° 0 mm 4 m/S 738 mmHg 46%
    05:00 +21°C° 0.2 mm 5 m/S 738 mmHg 47%
    06:00 +22°C° 0.2 mm 5 m/S 737 mmHg 47%
    07:00 +23°C° 0.2 mm 5 m/S 737 mmHg 47%
    08:00 +25°C° 0.6 mm 5 m/S 737 mmHg 46%
    09:00 +26°C° 0.6 mm 4 m/S 737 mmHg 46%
    10:00 +27°C° 0.6 mm 4 m/S 737 mmHg 45%
    11:00 +29°C° 0 mm 3 m/S 737 mmHg 42%
    12:00 +30°C° 0 mm 3 m/S 736 mmHg 38%
    13:00 +33°C° 0 mm 3 m/S 736 mmHg 35%
    14:00 +34°C° 0 mm 3 m/S 736 mmHg 34%
    15:00 +34°C° 0 mm 3 m/S 736 mmHg 33%
    16:00 +34°C° 0 mm 3 m/S 736 mmHg 32%
    17:00 +33°C° 0 mm 5 m/S 736 mmHg 39%
    18:00 +30°C° 0 mm 6 m/S 736 mmHg 46%
    19:00 +29°C° 0 mm 7 m/S 736 mmHg 53%
    20:00 +27°C° 0 mm 7 m/S 736 mmHg 60%
    21:00 +24°C° 0 mm 6 m/S 737 mmHg 67%
    22:00 +22°C° 0 mm 6 m/S 737 mmHg 74%
    23:00 +21°C° 0 mm 5 m/S 737 mmHg 77%
    Mehr zeigen